Location: Chantarel
(45.1638°N, 1.7873°E)
Time: 06:44:16
(UTC+00:00)

USA 306 - Pass Details

Date: 03 March 2021
Orbit: 564 x 577 km, 54.0° (Epoch: 10 April)

Event Time Altitude Azimuth Distance (km) Brightness Sun altitude
Rises 19:59:10 0° 298° (WNW) 2,783 7.7 -24.6°
Reaches altitude 10° 20:01:42 10° 311° (NW) 1,881 6.4 -25.0°
Enters shadow 20:05:05 27° 3° (N) 1,125 4.5 -25.6°
